Location: Castro Valley
(37.6940°N, 122.0850°W)
Time: 14:31:54
(UTC-08:00)

LightSail 2 - Visible Passes

Search period start: 27 February 2020 00:00
Search period end: 08 March 2020 00:00
Orbit: 698 x 724 km, 24.0° (Epoch: 26 February)

Date Brightness Start Highest point End Pass type
(mag) Time Alt. Az. Time Alt. Az. Time Alt. Az.
06 Mar 7.1 19:46:19 10° SSW 19:48:53 14° S 19:49:01 14° SSE visible
07 Mar 7.3 18:48:19 10° S 18:50:13 12° SSE 18:52:06 10° SE visible
07 Mar 7.4 20:31:40 10° SW 20:32:45 13° SSW 20:32:45 13° SSW visible
